CMS-02 (GSAT 24)

Last updated on Tue Sep 16 2025 00:02:50 GMT+0000 (Coordinated Universal Time)

1 52903U 22067A 25257.95874108 -.00000180 00000+0 00000+0 0 9997 2 52903 0.0332 249.3572 0003233 10.9594 162.0023 1.00272558 11848
UTC large
Height (km)
Speed (km/s)
/
Latitude / Longitude
Inclination (degrees)
Orbital Period (minutes)
Azimuth
Elevation
Range (km)
Doppler Factor

Next 0 passes for location: London (51.5072 / 0.1276)

Sorry there are no passes over London.